Wind_Speed
5 7 8 9 11 11 8 8 8 7 6 5 4 2 2 4 4 5 5 5 4 5 5 4 3 2 3 5 5 5 3 5 10 13 8 10 14 15 11 4 4 3 3 3 5
8 9 10 12 12 13 11 9 8 7 7 7 7 6 5 4 5 7 7 7 8 7 6 5 2 3 3 4 5 4 3 5 9 12 11 10 12 10 12 6 3 3 3 3 4
7 8 9 11 12 11 10 8 7 6 6 6 7 7 7 6 5 8 9 9 8 8 8 5 1 3 3 3 3 1 4 6 8 8 7 3 5 10 5 5 5 5 2 2 3
5 6 7 8 8 7 7 6 5 5 5 5 6 6 6 7 8 10 11 11 10 9 8 4 1 2 1 3 7 2 1 7 4 3 3 2 9 12 4 10 4 5 3 2 3
5 5 5 6 6 5 5 4 3 3 3 4 5 5 6 7 8 10 12 13 12 11 8 3 2 3 1 0 3 5 2 4 4 4 4 5 8 10 9 10 5 4 4 1 3
2 2 3 4 5 5 5 4 3 1 1 2 3 3 3 5 7 10 12 13 14 13 8 4 3 4 3 1 2 5 3 2 3 4 3 4 7 5 12 6 8 3 3 0 1
5 5 5 4 4 4 6 6 5 5 4 4 3 3 2 3 5 8 11 13 15 15 9 4 5 4 3 1 2 4 4 1 3 3 2 2 12 9 14 10 8 6 4 3 3
4 4 5 7 8 7 7 8 8 8 8 8 7 6 5 4 4 6 9 11 13 15 12 4 6 3 2 4 4 5 5 3 2 4 4 3 1 4 9 13 12 9 8 6 5
7 7 7 7 8 8 10 11 11 12 12 11 10 9 8 7 6 6 8 11 12 14 13 6 7 4 5 6 8 9 8 7 5 2 4 5 3 4 5 14 13 11 9 8 7
11 12 12 11 11 10 10 11 12 14 14 13 13 12 11 10 9 8 8 9 12 13 12 6 7 6 7 6 9 7 4 5 8 5 4 2 2 4 5 13 11 8 10 10 6
12 12 14 13 13 11 10 12 13 15 15 14 15 14 14 13 12 11 10 10 12 12 12 8 7 8 9 6 10 10 10 9 8 10 7 7 7 4 5 12 12 11 9 9 7
16 16 15 15 14 14 14 14 15 16 17 16 16 16 16 16 15 14 14 13 12 12 12 11 11 11 9 8 9 8 8 11 12 10 7 9 10 9 5 5 7 10 10 9 9
22 23 22 22 20 18 17 17 18 17 17 15 15 15 14 15 16 16 16 15 14 14 13 15 13 10 8 7 8 7 12 13 13 12 8 5 4 7 9 6 5 5 7 9 13
15 17 19 21 24 25 24 23 22 21 21 21 20 18 18 19 17 16 16 16 17 16 14 16 13 10 9 9 8 12 15 14 16 14 10 9 8 9 7 7 10 9 10 11 15
19 20 20 19 19 18 19 24 27 27 28 27 25 24 24 23 22 22 20 19 20 19 17 17 14 12 7 11 12 18 16 15 16 16 13 18 11 18 13 9 8 10 15 15 15
13 15 16 16 17 19 20 21 22 23 29 30 28 27 26 26 26 25 23 23 22 21 20 21 15 13 11 16 16 18 16 16 17 16 13 14 12 13 14 12 10 10 15 18 18
14 16 17 17 17 18 19 20 21 22 25 26 24 28 30 29 29 28 27 27 25 22 20 22 16 13 17 18 14 16 16 17 17 9 7 6 6 11 12 14 14 9 12 17 20
18 18 19 20 21 21 21 20 20 22 23 24 23 24 25 27 27 28 29 26 21 20 22 21 17 16 14 12 12 15 19 24 17 10 8 2 1 6 13 11 12 8 9 12 19
19 20 20 20 20 20 21 20 21 23 25 25 24 25 27 28 27 27 27 25 22 21 20 21 16 16 18 16 16 16 18 21 19 14 8 4 1 4 10 9 10 10 7 7 8
17 18 20 22 24 24 25 24 26 26 25 27 28 27 28 30 32 30 28 23 21 21 21 20 18 21 22 21 20 19 18 17 18 14 11 6 2 2 6 8 9 14 10 8 11
21 21 21 22 24 26 28 30 31 29 27 29 31 31 31 31 35 35 30 23 25 22 22 20 22 25 24 21 14 15 17 18 19 16 12 11 6 6 1 6 10 12 13 12 12
19 18 18 19 19 20 20 22 25 30 32 31 31 34 33 35 35 38 33 29 27 27 22 21 26 30 26 22 20 22 18 14 20 17 13 14 6 6 4 2 8 7 8 6 1
17 17 18 19 20 21 23 23 24 27 30 31 35 35 35 36 37 38 35 32 32 33 29 27 30 29 29 29 26 25 22 19 15 15 14 15 13 6 2 2 8 6 2 1 3
19 19 20 21 22 24 26 28 30 31 33 34 35 37 39 38 41 39 37 34 37 38 36 34 35 35 36 31 27 26 23 22 22 23 19 17 14 11 9 7 5 2 1 2 3
21 20 20 23 24 27 28 30 33 34 37 37 38 38 41 42 42 44 42 40 40 41 42 42 39 38 31 31 32 30 28 24 26 26 22 16 13 10 12 10 6 3 5 3 3
24 27 30 31 32 34 34 34 36 37 38 41 41 40 42 43 44 45 45 46 46 46 43 45 46 40 36 32 30 32 30 25 23 23 21 21 19 15 8 8 10 8 7 7 8
28 31 33 35 38 41 43 43 41 37 36 38 39 41 41 43 45 43 46 45 48 54 51 45 44 41 43 38 34 35 29 31 29 26 17 18 11 14 11 7 4 7 12 12 13
Wind_Direction
105 94 101 116 123 126 122 113 110 112 121 128 124 114 69 38 25 10 19 3 352 352 352 346 336 318 333 13 17 269 289 318 334 324 309 241 232 228 215 204 225 233 227 199 171
111 102 103 113 117 118 116 113 111 109 110 105 93 87 82 70 37 21 5 360 360 6 13 31 343 283 314 353 31 49 5 328 306 301 302 288 222 217 212 181 199 200 204 165 166
117 109 113 120 124 123 117 111 107 103 100 93 82 78 69 44 16 13 6 6 9 7 22 68 226 297 285 276 279 294 14 314 297 283 305 230 194 176 170 151 158 190 172 115 190
117 131 131 138 138 133 126 116 105 102 92 81 70 63 54 38 25 14 7 9 8 14 28 56 69 242 220 243 233 184 293 285 310 348 15 276 173 167 176 145 153 159 119 88 164
106 118 154 158 162 163 162 144 119 100 70 55 52 54 47 37 20 12 6 7 6 15 28 12 347 298 254 232 186 134 263 271 300 346 323 238 218 199 202 187 181 148 111 39 166
169 148 148 174 195 204 198 194 191 215 342 6 20 26 26 18 12 6 4 7 6 14 23 2 337 311 310 250 186 176 195 245 344 317 16 226 221 203 187 205 241 213 112 285 127
223 224 219 211 212 212 217 223 233 251 270 289 301 306 321 356 353 358 360 4 6 15 21 348 327 331 312 258 199 203 198 282 340 315 327 291 229 298 213 236 200 193 156 149 147
214 220 224 230 233 235 239 245 253 260 265 272 279 281 286 290 318 339 353 356 6 14 12 343 319 314 269 250 195 221 232 265 340 26 60 83 139 316 232 202 201 188 164 160 149
242 245 244 242 246 245 247 250 253 258 260 264 269 276 275 274 283 306 330 346 353 7 8 350 309 300 258 250 227 237 266 274 238 194 83 49 33 355 212 210 191 169 158 149 145
257 258 257 256 256 257 256 254 253 254 255 257 260 267 267 261 265 276 300 323 337 353 357 354 296 284 265 244 222 219 228 240 235 215 221 285 61 358 199 191 175 166 166 163 161
263 262 263 260 259 259 255 253 253 256 259 259 261 267 269 262 258 260 275 295 314 333 336 327 288 272 277 252 232 218 230 255 245 234 216 199 155 111 145 188 174 173 180 179 170
265 265 265 264 260 257 255 256 255 258 263 263 263 262 262 259 259 260 267 279 294 313 317 310 302 297 272 251 240 209 213 227 219 213 204 205 187 155 144 161 192 176 197 209 196
264 264 262 263 262 258 254 255 258 259 262 251 260 258 263 259 261 264 268 272 282 298 299 296 306 301 272 261 240 204 219 224 224 213 198 204 207 201 185 182 199 221 211 212 198
266 264 264 263 262 259 257 255 254 255 257 260 255 259 256 261 263 267 270 274 281 284 288 286 294 290 269 245 238 210 217 221 229 224 240 258 244 248 218 208 221 234 222 223 224
271 270 270 267 266 264 261 256 255 253 256 254 255 258 259 261 262 263 266 267 272 278 278 268 280 281 259 236 222 222 229 229 233 244 267 268 250 256 254 244 244 238 238 232 236
287 279 276 277 273 264 261 259 259 257 255 255 256 256 256 258 260 261 265 269 272 273 267 268 266 267 239 233 225 236 242 254 260 257 253 264 250 240 242 242 249 254 237 231 231
281 275 277 274 273 274 266 260 261 260 262 259 258 259 257 258 263 265 266 270 274 271 261 260 259 241 225 237 224 237 250 261 272 256 234 259 245 230 234 237 244 258 263 251 239
287 278 273 272 272 273 272 267 264 262 261 263 260 254 257 256 257 262 266 269 270 267 259 257 250 244 235 231 235 230 242 253 263 241 223 213 179 257 237 245 254 269 282 258 248
295 287 281 274 270 269 268 266 259 258 258 262 259 249 247 253 252 256 262 266 267 269 261 249 234 229 219 203 220 239 252 253 256 235 226 192 285 251 243 255 276 283 291 286 298
307 296 287 277 271 269 269 270 266 262 260 258 256 252 248 246 250 251 251 256 260 261 260 239 226 214 204 207 218 234 243 254 234 236 233 194 143 113 195 236 271 295 306 299 277
308 300 293 284 278 274 272 270 269 268 262 258 257 253 250 245 243 248 249 242 245 247 252 247 231 212 205 219 224 240 249 256 234 234 241 216 230 110 48 264 286 291 317 315 297
314 310 307 302 295 290 283 277 273 268 262 257 253 253 249 249 249 245 245 236 234 237 242 238 220 211 208 209 215 226 233 232 237 243 244 246 207 159 49 253 313 320 320 321 91
317 313 311 307 302 295 288 285 281 278 275 265 254 251 251 245 246 246 243 235 234 221 221 218 215 210 204 219 222 228 235 225 210 222 230 246 211 275 245 334 311 341 342 36 143
313 312 310 307 303 298 292 288 285 279 276 272 265 257 250 245 246 241 241 229 232 222 219 219 218 220 225 235 234 223 231 227 226 231 241 243 233 235 237 251 298 66 150 140 120
318 317 312 310 308 304 299 292 286 282 277 271 265 260 254 248 242 242 235 230 227 228 224 222 221 225 230 227 220 224 229 236 236 230 235 248 236 231 249 236 265 249 238 203 120
316 316 317 315 312 311 310 303 294 285 277 272 268 262 255 249 244 240 235 228 224 231 231 234 223 224 224 218 223 230 225 226 233 235 245 250 251 253 264 242 255 257 241 253 246
316 317 315 313 312 312 310 306 301 288 275 270 266 265 261 255 250 242 239 229 224 225 231 236 239 233 232 218 219 223 228 232 225 235 242 251 261 263 253 304 276 257 248 252 251
Height
5875 5875 5876 5876 5878 5880 5882 5883 5884 5884 5885 5886 5887 5888 5888 5889 5889 5889 5890 5891 5891 5891 5891 5891 5891 5890 5891 5891 5891 5892 5893 5892 5891 5890 5890 5888 5888 5890 5891 5892 5892 5892 5890 5889 5887
5877 5877 5878 5879 5880 5882 5884 5885 5885 5886 5886 5887 5888 5889 5889 5889 5890 5890 5890 5890 5890 5891 5891 5891 5890 5889 5890 5891 5891 5891 5892 5891 5890 5889 5888 5886 5886 5888 5890 5891 5891 5891 5890 5888 5886
5878 5879 5880 5881 5883 5884 5885 5886 5886 5887 5888 5889 5889 5890 5890 5890 5890 5890 5890 5890 5890 5890 5890 5890 5890 5889 5889 5890 5890 5890 5891 5890 5888 5887 5886 5885 5885 5887 5889 5889 5890 5891 5889 5887 5886
5879 5880 5881 5883 5884 5885 5886 5887 5887 5888 5889 5890 5890 5891 5891 5891 5891 5890 5889 5889 5889 5890 5890 5889 5889 5889 5889 5889 5889 5890 5890 5889 5887 5885 5885 5885 5885 5886 5887 5888 5890 5889 5887 5886 5886
5880 5881 5882 5884 5885 5886 5887 5888 5888 5889 5890 5890 5891 5891 5891 5891 5891 5890 5889 5889 5888 5889 5889 5888 5887 5887 5888 5887 5888 5888 5889 5888 5886 5885 5884 5884 5884 5884 5886 5887 5889 5888 5885 5884 5885
5881 5882 5883 5884 5885 5886 5887 5888 5889 5889 5890 5890 5891 5891 5891 5892 5891 5889 5889 5888 5888 5888 5888 5887 5887 5886 5886 5886 5886 5887 5887 5886 5885 5884 5884 5883 5884 5883 5885 5886 5886 5886 5884 5883 5884
5881 5882 5883 5884 5885 5886 5886 5887 5888 5889 5889 5890 5890 5891 5891 5892 5890 5889 5888 5888 5887 5888 5887 5885 5885 5885 5885 5884 5884 5885 5886 5885 5884 5883 5883 5883 5883 5882 5883 5883 5883 5883 5882 5882 5884
5880 5881 5882 5883 5884 5885 5886 5886 5887 5887 5888 5888 5889 5889 5889 5890 5889 5888 5888 5887 5887 5887 5886 5885 5884 5884 5883 5884 5884 5885 5886 5885 5885 5883 5882 5882 5882 5879 5878 5879 5880 5882 5881 5881 5883
5879 5880 5880 5881 5882 5883 5884 5884 5885 5885 5885 5886 5887 5887 5888 5888 5888 5887 5887 5886 5886 5886 5885 5884 5883 5883 5882 5882 5883 5884 5885 5885 5884 5883 5882 5881 5879 5878 5876 5878 5879 5881 5880 5880 5881
5877 5877 5878 5879 5880 5881 5881 5881 5881 5881 5882 5883 5884 5885 5885 5885 5885 5885 5885 5885 5884 5884 5884 5884 5881 5881 5881 5882 5882 5883 5883 5883 5883 5883 5882 5881 5879 5877 5875 5877 5878 5879 5879 5879 5880
5875 5875 5875 5876 5877 5877 5878 5878 5880 5879 5879 5880 5881 5881 5881 5882 5883 5883 5883 5883 5883 5882 5882 5881 5880 5880 5879 5880 5881 5881 5882 5882 5882 5881 5880 5881 5880 5877 5875 5876 5877 5878 5879 5878 5879
5871 5871 5871 5872 5873 5874 5874 5874 5875 5876 5875 5876 5877 5877 5877 5878 5879 5880 5880 5881 5880 5880 5880 5880 5878 5877 5877 5878 5879 5879 5880 5880 5880 5879 5879 5879 5879 5878 5877 5876 5876 5876 5877 5878 5879
5866 5866 5866 5867 5868 5869 5870 5870 5870 5871 5871 5873 5872 5873 5874 5875 5875 5875 5876 5877 5877 5877 5877 5876 5877 5876 5875 5876 5876 5877 5878 5878 5879 5879 5878 5878 5879 5878 5877 5877 5876 5876 5875 5876 5877
5860 5859 5860 5861 5863 5863 5864 5865 5866 5866 5866 5868 5869 5869 5871 5870 5872 5872 5872 5874 5873 5874 5874 5872 5873 5873 5873 5873 5875 5875 5874 5876 5877 5878 5879 5879 5879 5878 5877 5878 5877 5875 5875 5875 5877
5855 5855 5855 5855 5856 5857 5858 5858 5859 5861 5860 5862 5862 5863 5864 5866 5867 5867 5868 5868 5869 5869 5871 5869 5869 5869 5870 5871 5872 5872 5873 5874 5875 5876 5876 5875 5878 5876 5876 5877 5876 5875 5875 5876 5875
5851 5850 5850 5850 5850 5850 5850 5851 5853 5855 5853 5854 5855 5856 5858 5859 5860 5861 5863 5864 5864 5865 5866 5865 5865 5866 5867 5866 5868 5869 5871 5871 5872 5874 5875 5873 5875 5873 5874 5875 5874 5874 5873 5873 5873
5847 5846 5846 5846 5845 5845 5845 5847 5847 5846 5847 5849 5850 5850 5851 5852 5854 5855 5857 5858 5859 5860 5860 5860 5862 5862 5862 5863 5866 5867 5868 5869 5871 5872 5873 5872 5872 5871 5871 5871 5871 5872 5872 5871 5871
5842 5841 5840 5841 5840 5840 5839 5841 5841 5841 5841 5842 5844 5844 5845 5845 5848 5848 5849 5851 5853 5854 5854 5856 5858 5859 5860 5861 5864 5864 5866 5867 5868 5869 5870 5870 5870 5869 5868 5868 5869 5871 5869 5868 5868
5835 5835 5835 5834 5834 5833 5833 5833 5834 5834 5835 5835 5837 5838 5838 5839 5842 5843 5844 5846 5847 5848 5850 5851 5853 5854 5856 5857 5860 5861 5862 5865 5865 5867 5867 5869 5869 5867 5867 5867 5867 5867 5867 5865 5863
5830 5829 5828 5827 5827 5827 5826 5826 5825 5827 5828 5828 5829 5832 5833 5833 5834 5836 5838 5842 5842 5843 5843 5846 5847 5849 5850 5852 5854 5856 5860 5861 5862 5864 5865 5866 5866 5865 5865 5865 5865 5864 5864 5863 5861
5824 5823 5821 5820 5820 5820 5819 5818 5817 5818 5820 5821 5821 5823 5825 5826 5826 5828 5834 5838 5837 5839 5840 5842 5842 5845 5847 5848 5852 5854 5855 5857 5859 5861 5863 5864 5866 5864 5863 5863 5863 5862 5861 5859 5856
5818 5817 5815 5814 5814 5812 5811 5811 5810 5808 5809 5811 5812 5812 5815 5817 5818 5819 5826 5831 5833 5834 5836 5837 5838 5839 5843 5845 5847 5849 5851 5853 5856 5859 5860 5861 5864 5863 5863 5862 5861 5861 5859 5858 5857
5813 5812 5810 5809 5809 5807 5806 5805 5803 5802 5799 5802 5802 5803 5804 5807 5809 5811 5817 5825 5826 5828 5830 5832 5833 5836 5838 5840 5842 5845 5848 5850 5852 5854 5856 5858 5862 5861 5862 5862 5861 5860 5859 5858 5857
5809 5806 5804 5803 5802 5801 5799 5798 5796 5795 5792 5791 5792 5793 5794 5795 5796 5801 5807 5815 5816 5820 5821 5824 5827 5830 5834 5838 5841 5842 5844 5846 5849 5851 5854 5854 5857 5858 5860 5861 5860 5859 5859 5859 5858
5802 5801 5799 5796 5794 5792 5791 5789 5787 5785 5782 5780 5779 5779 5781 5784 5785 5787 5795 5801 5807 5809 5812 5814 5819 5824 5829 5832 5834 5837 5840 5842 5844 5848 5850 5852 5853 5855 5857 5859 5859 5859 5858 5858 5858
5797 5794 5790 5787 5785 5782 5781 5779 5776 5773 5770 5767 5766 5766 5766 5768 5771 5775 5779 5787 5795 5797 5800 5803 5809 5815 5820 5824 5828 5830 5833 5836 5840 5842 5845 5847 5850 5852 5855 5856 5856 5857 5856 5856 5857
5790 5786 5783 5779 5775 5772 5769 5765 5762 5760 5758 5755 5754 5753 5752 5754 5756 5761 5765 5773 5781 5784 5788 5794 5798 5805 5808 5816 5819 5821 5827 5830 5834 5838 5841 5843 5847 5849 5850 5852 5853 5853 5854 5854 5854